AFR218 LFPG-VABB

Flight info

Callsign AFR218
Flight time 8h 42m
Altitude 35000
Route LANVI DCT BEGAR DCT TRA DCT GAMSA DCT UMVEG DCT DIMLO DCT INVED DCT LUGEB DCT UDROS DCT CRM DCT ROLIN DCT TETRO DCT BARAD M747 SULEL N449 DUKAN B449 DOLOS B475 NINOP A909 LEMOD N644 REGET G325 ZB G202 RK P628 VIKIT Z8 AAE R458 BOFIN POKON2A
Aircraft B772/H-SDE2E3FGHIJ3J5M1P2RWXYZ/LB1D1

Departure

Time 2026-05-04 10:52
Airport Charles de Gaulle International Airport (LFPG)

Arrival

Time 2026-05-04 19:35
Airport Chhatrapati Shivaji Maharaj International Airport (VABB)
Time Latitude Longitude Altitude Speed Heading
2026-05-04 10:35 49.00147 2.58018 359 ft 0 kts 355°
2026-05-04 10:44 49.00113 2.58024 363 ft 4 kts 344°
2026-05-04 10:45 49.00090 2.58042 367 ft 4 kts 308°
2026-05-04 10:45 49.00081 2.58077 363 ft 4 kts 268°
2026-05-04 10:45 49.00081 2.58084 363 ft 0 kts 265°
2026-05-04 10:47 49.00077 2.58023 366 ft 13 kts 265°
2026-05-04 10:49 48.99933 2.56863 358 ft 25 kts 265°
2026-05-04 10:49 48.99919 2.56589 364 ft 26 kts 265°
2026-05-04 10:50 48.99905 2.56316 359 ft 26 kts 266°
2026-05-04 10:51 48.99691 2.57557 359 ft 130 kts 85°
2026-05-04 10:52 48.99777 2.59195 422 ft 171 kts 86°
2026-05-04 10:52 48.99866 2.61001 1088 ft 167 kts 86°
2026-05-04 10:52 48.99966 2.62798 1652 ft 174 kts 86°
2026-05-04 10:54 49.00653 2.79737 4259 ft 265 kts 99°
2026-05-04 10:54 49.00335 2.82516 4943 ft 268 kts 101°
2026-05-04 10:56 48.98262 3.02635 8891 ft 282 kts 98°
2026-05-04 10:56 48.98023 3.05575 9392 ft 284 kts 97°
2026-05-04 10:56 48.97777 3.08577 9868 ft 287 kts 98°
2026-05-04 10:57 48.97525 3.11621 10205 ft 295 kts 98°
2026-05-04 10:57 48.97258 3.14808 10305 ft 310 kts 98°
2026-05-04 10:57 48.96976 3.18148 10439 ft 327 kts 98°
2026-05-04 10:57 48.96678 3.21672 10610 ft 343 kts 98°
2026-05-04 10:58 48.96369 3.25320 11101 ft 351 kts 98°
2026-05-04 10:58 48.96051 3.29030 11770 ft 357 kts 98°
2026-05-04 10:58 48.95728 3.32799 12509 ft 361 kts 98°
2026-05-04 10:58 48.95401 3.36605 13321 ft 364 kts 98°
2026-05-04 10:59 48.95069 3.40447 14110 ft 367 kts 98°
2026-05-04 10:59 48.94734 3.44321 14749 ft 372 kts 98°
2026-05-04 10:59 48.94391 3.48257 15382 ft 377 kts 98°
2026-05-04 10:59 48.94043 3.52241 15983 ft 382 kts 99°
2026-05-04 11:00 48.93700 3.56274 16500 ft 388 kts 98°
2026-05-04 11:01 48.92157 3.85865 20253 ft 412 kts 98°
2026-05-04 11:02 48.91919 3.90228 20750 ft 415 kts 98°
2026-05-04 11:02 48.91676 3.94619 21220 ft 418 kts 98°
2026-05-04 11:05 48.78861 4.53320 26709 ft 441 kts 123°
2026-05-04 11:06 48.77361 4.57394 27106 ft 443 kts 123°
2026-05-04 11:06 48.75852 4.61485 27482 ft 445 kts 123°
2026-05-04 11:06 48.74337 4.65586 27840 ft 447 kts 124°
2026-05-04 11:06 48.72814 4.69702 28220 ft 449 kts 124°
2026-05-04 11:08 48.61875 4.99058 30423 ft 466 kts 124°
2026-05-04 11:10 48.51167 5.27482 31864 ft 477 kts 125°
2026-05-04 11:12 48.39698 5.57598 34083 ft 471 kts 125°
2026-05-04 11:12 48.38060 5.61872 34273 ft 472 kts 125°
2026-05-04 11:12 48.36410 5.66168 34484 ft 474 kts 125°
2026-05-04 11:12 48.34763 5.70456 34727 ft 474 kts 125°
2026-05-04 11:13 48.33109 5.74750 34917 ft 475 kts 125°
2026-05-04 11:13 48.31481 5.78984 34951 ft 479 kts 124°
2026-05-04 11:13 48.28978 5.88365 35029 ft 487 kts 112°
2026-05-04 11:14 48.27039 5.98069 35012 ft 482 kts 111°
2026-05-04 11:16 48.18844 6.35927 35025 ft 483 kts 113°
2026-05-04 11:16 48.16708 6.45485 35006 ft 483 kts 113°
2026-05-04 11:17 48.14566 6.55040 35016 ft 484 kts 113°
2026-05-04 11:19 48.05891 6.93304 35010 ft 487 kts 113°
2026-05-04 11:19 48.03761 7.02600 34998 ft 487 kts 113°
2026-05-04 11:20 48.01571 7.12113 34992 ft 487 kts 114°
2026-05-04 11:20 47.99366 7.21642 34995 ft 486 kts 114°
2026-05-04 11:22 47.90436 7.59828 35001 ft 488 kts 114°
2026-05-04 11:23 47.88073 7.69307 35001 ft 488 kts 115°
2026-05-04 11:25 47.79731 8.02037 35003 ft 489 kts 115°
2026-05-04 11:25 47.77311 8.11503 35001 ft 488 kts 115°
2026-05-04 11:27 47.66570 8.53954 34995 ft 487 kts 111°
2026-05-04 11:28 47.64462 8.63517 35002 ft 487 kts 111°
2026-05-04 11:28 47.62327 8.73048 35006 ft 487 kts 112°
2026-05-04 11:29 47.60162 8.82522 34982 ft 487 kts 111°
2026-05-04 11:29 47.57972 8.92023 35002 ft 487 kts 112°
2026-05-04 11:33 47.42546 9.57871 34992 ft 485 kts 112°
2026-05-04 11:33 47.40637 9.67370 34987 ft 487 kts 104°
2026-05-04 11:34 47.39759 9.77328 34997 ft 490 kts 98°
2026-05-04 11:34 47.39029 9.87348 34997 ft 490 kts 98°
2026-05-04 11:35 47.38261 9.97362 35002 ft 491 kts 99°
2026-05-04 11:35 47.37483 10.07088 35005 ft 493 kts 99°
2026-05-04 11:36 47.36667 10.17080 35016 ft 493 kts 99°
2026-05-04 11:36 47.35837 10.27146 35016 ft 494 kts 99°
2026-05-04 11:37 47.35005 10.37137 35030 ft 493 kts 99°
2026-05-04 11:37 47.34162 10.47170 35019 ft 492 kts 99°
2026-05-04 11:38 47.33306 10.57245 35023 ft 491 kts 99°
2026-05-04 11:38 47.32454 10.67164 35001 ft 490 kts 99°
2026-05-04 11:39 47.31590 10.77115 34998 ft 489 kts 99°
2026-05-04 11:41 47.28539 11.11479 34983 ft 488 kts 99°
2026-05-04 11:41 47.27639 11.21385 34992 ft 488 kts 99°
2026-05-04 11:42 47.26736 11.31238 34994 ft 489 kts 99°
2026-05-04 11:42 47.25817 11.41176 34989 ft 489 kts 99°
2026-05-04 11:43 47.24890 11.51098 34991 ft 489 kts 99°
2026-05-04 11:43 47.23954 11.61021 34990 ft 489 kts 100°
2026-05-04 11:44 47.23011 11.70919 34996 ft 489 kts 99°
2026-05-04 11:44 47.22059 11.80837 35012 ft 489 kts 100°
2026-05-04 11:45 47.21098 11.90755 35017 ft 489 kts 100°
2026-05-04 11:45 47.20163 12.00373 35018 ft 489 kts 100°
2026-05-04 11:46 47.19199 12.10259 35023 ft 488 kts 100°
2026-05-04 11:46 47.18234 12.20073 35028 ft 489 kts 100°
2026-05-04 11:47 47.17252 12.29964 35035 ft 488 kts 100°
2026-05-04 11:47 47.16260 12.39856 35029 ft 488 kts 100°
2026-05-04 11:48 47.15260 12.49736 35021 ft 488 kts 100°
2026-05-04 11:48 47.14252 12.59622 35034 ft 488 kts 100°
2026-05-04 11:49 47.13242 12.69430 35031 ft 488 kts 100°
2026-05-04 11:49 47.12217 12.79302 35034 ft 489 kts 100°
2026-05-04 11:50 47.11182 12.89179 35026 ft 489 kts 100°
2026-05-04 11:50 47.10140 12.99051 35026 ft 488 kts 100°
2026-05-04 11:51 47.09127 13.08559 35037 ft 489 kts 100°
2026-05-04 11:51 47.08068 13.18418 35046 ft 489 kts 100°
2026-05-04 11:52 47.06997 13.28295 35040 ft 489 kts 100°
2026-05-04 11:52 47.05919 13.38163 35041 ft 490 kts 100°
2026-05-04 11:53 47.04834 13.48027 35043 ft 490 kts 100°
2026-05-04 11:53 47.03744 13.57849 35049 ft 489 kts 100°
2026-05-04 11:55 46.99472 13.95583 35045 ft 491 kts 100°
2026-05-04 11:56 46.98368 14.05154 35055 ft 491 kts 100°
2026-05-04 11:56 46.97218 14.15050 35037 ft 493 kts 100°
2026-05-04 11:57 46.96057 14.24953 35039 ft 493 kts 100°
2026-05-04 11:57 46.94891 14.34829 35032 ft 493 kts 100°
2026-05-04 11:58 46.93721 14.44658 35051 ft 492 kts 101°
2026-05-04 11:58 46.92539 14.54516 35050 ft 491 kts 100°
2026-05-04 11:59 46.91348 14.64377 35059 ft 491 kts 100°
2026-05-04 11:59 46.90157 14.74161 35053 ft 491 kts 100°
2026-05-04 12:00 46.88950 14.83997 35053 ft 490 kts 100°
2026-05-04 12:00 46.87738 14.93811 35054 ft 490 kts 100°
2026-05-04 12:01 46.86553 15.03330 35048 ft 491 kts 100°
2026-05-04 12:02 46.82219 15.37598 35051 ft 491 kts 100°
2026-05-04 12:03 46.80960 15.47394 35048 ft 491 kts 100°
2026-05-04 12:03 46.79692 15.57189 35041 ft 491 kts 100°
2026-05-04 12:04 46.78416 15.66979 35053 ft 491 kts 100°
2026-05-04 12:04 46.77130 15.76770 35038 ft 491 kts 100°
2026-05-04 12:05 46.75842 15.86521 35045 ft 491 kts 100°
2026-05-04 12:05 46.74547 15.96248 35048 ft 491 kts 100°
2026-05-04 12:06 46.73280 16.05708 35049 ft 490 kts 100°
2026-05-04 12:06 46.71964 16.15463 35055 ft 490 kts 100°
2026-05-04 12:07 46.70640 16.25215 35049 ft 490 kts 100°
2026-05-04 12:07 46.69308 16.34967 35052 ft 490 kts 101°
2026-05-04 12:08 46.67986 16.44651 35054 ft 490 kts 99°
2026-05-04 12:08 46.66838 16.54409 35055 ft 489 kts 98°
2026-05-04 12:09 46.65759 16.64195 35053 ft 489 kts 98°
2026-05-04 12:09 46.64657 16.73942 35054 ft 488 kts 98°
2026-05-04 12:10 46.63524 16.83689 35067 ft 488 kts 98°
2026-05-04 12:10 46.62377 16.93418 35072 ft 487 kts 98°
2026-05-04 12:11 46.61263 17.02794 35074 ft 486 kts 98°
2026-05-04 12:11 46.60105 17.12480 35075 ft 486 kts 98°
2026-05-04 12:12 46.58940 17.22153 35080 ft 485 kts 98°
2026-05-04 12:12 46.57767 17.31821 35076 ft 485 kts 98°
2026-05-04 12:14 46.53006 17.70374 35084 ft 485 kts 98°
2026-05-04 12:15 46.51803 17.79939 35084 ft 485 kts 98°
2026-05-04 12:15 46.50583 17.89567 35086 ft 485 kts 99°
2026-05-04 12:16 46.49357 17.99184 35085 ft 484 kts 99°
2026-05-04 12:16 46.48158 18.08516 35098 ft 484 kts 99°
2026-05-04 12:17 46.46916 18.18125 35093 ft 484 kts 99°
2026-05-04 12:17 46.45667 18.27714 35091 ft 484 kts 99°
2026-05-04 12:18 46.44410 18.37301 35095 ft 484 kts 99°
2026-05-04 12:18 46.43144 18.46889 35098 ft 484 kts 98°
2026-05-04 12:19 46.41879 18.56410 35095 ft 483 kts 99°
2026-05-04 12:19 46.40598 18.65988 35099 ft 483 kts 99°
2026-05-04 12:20 46.39313 18.75525 35097 ft 482 kts 99°
2026-05-04 12:20 46.38019 18.85066 35107 ft 482 kts 98°
2026-05-04 12:21 46.36720 18.94590 35098 ft 482 kts 98°
2026-05-04 12:21 46.35459 19.03768 35106 ft 482 kts 98°
2026-05-04 12:22 46.34145 19.13279 35103 ft 482 kts 99°
2026-05-04 12:22 46.32820 19.22797 35107 ft 482 kts 98°
2026-05-04 12:23 46.31486 19.32327 35108 ft 482 kts 99°
2026-05-04 12:23 46.30148 19.41821 35107 ft 482 kts 99°
2026-05-04 12:24 46.28800 19.51329 35114 ft 482 kts 99°
2026-05-04 12:24 46.27444 19.60827 35118 ft 482 kts 98°
2026-05-04 12:25 46.26091 19.70250 35114 ft 482 kts 99°
2026-05-04 12:25 46.24720 19.79740 35112 ft 482 kts 99°
2026-05-04 12:26 46.23340 19.89225 35118 ft 482 kts 99°
2026-05-04 12:26 46.21955 19.98694 35119 ft 482 kts 99°
2026-05-04 12:27 46.20603 20.07881 35117 ft 482 kts 99°
2026-05-04 12:27 46.19202 20.17348 35119 ft 482 kts 99°
2026-05-04 12:28 46.17793 20.26810 35115 ft 482 kts 99°
2026-05-04 12:28 46.16377 20.36266 35129 ft 482 kts 99°
2026-05-04 12:29 46.14523 20.45567 35121 ft 485 kts 107°
2026-05-04 12:29 46.12187 20.54630 35121 ft 485 kts 108°
2026-05-04 12:30 46.09821 20.63725 35125 ft 484 kts 107°
2026-05-04 12:30 46.07480 20.72815 35140 ft 484 kts 107°
2026-05-04 12:31 46.05146 20.81915 35127 ft 484 kts 107°
2026-05-04 12:31 46.02810 20.91006 35122 ft 483 kts 107°
2026-05-04 12:32 45.99405 21.04185 35137 ft 482 kts 107°
2026-05-04 12:33 45.97061 21.13211 35126 ft 481 kts 107°
2026-05-04 12:33 45.94711 21.22222 35129 ft 481 kts 107°
2026-05-04 12:34 45.92356 21.31217 35127 ft 480 kts 108°
2026-05-04 12:34 45.90000 21.40181 35148 ft 480 kts 108°
2026-05-04 12:35 45.87638 21.49137 35133 ft 479 kts 108°
2026-05-04 12:35 45.85270 21.58080 35117 ft 479 kts 108°
2026-05-04 12:36 45.82916 21.66934 35122 ft 478 kts 108°
2026-05-04 12:36 45.80542 21.75831 35129 ft 477 kts 108°
2026-05-04 12:37 45.78163 21.84719 35111 ft 477 kts 108°
2026-05-04 12:37 45.75779 21.93585 35113 ft 476 kts 108°
2026-05-04 12:38 45.73459 22.02186 35113 ft 476 kts 108°
2026-05-04 12:38 45.71065 22.11027 35126 ft 476 kts 108°
2026-05-04 12:39 45.68669 22.19842 35103 ft 476 kts 108°
2026-05-04 12:39 45.66242 22.28646 35102 ft 475 kts 109°
2026-05-04 12:40 45.63767 22.37396 35111 ft 475 kts 109°
2026-05-04 12:40 45.61285 22.46134 35122 ft 475 kts 109°
2026-05-04 12:41 45.58820 22.54811 35110 ft 475 kts 109°
2026-05-04 12:41 45.56336 22.63542 35109 ft 475 kts 109°
2026-05-04 12:42 45.54252 22.70846 35108 ft 474 kts 110°
2026-05-04 12:42 45.51772 22.79506 35124 ft 474 kts 110°
2026-05-04 12:43 45.49272 22.88206 35111 ft 474 kts 110°
2026-05-04 12:43 45.46766 22.96897 35104 ft 474 kts 110°
2026-05-04 12:44 45.44323 23.05337 35098 ft 474 kts 110°
2026-05-04 12:44 45.41804 23.14012 35104 ft 473 kts 110°
2026-05-04 12:45 45.39284 23.22661 35095 ft 472 kts 110°
2026-05-04 12:45 45.36770 23.31259 35081 ft 470 kts 110°
2026-05-04 12:46 45.34253 23.39836 35057 ft 469 kts 109°
2026-05-04 12:46 45.31737 23.48377 35063 ft 468 kts 110°
2026-05-04 12:47 45.29218 23.56908 35076 ft 468 kts 110°
2026-05-04 12:47 45.26694 23.65425 35071 ft 468 kts 110°
2026-05-04 12:48 45.24159 23.73946 35071 ft 469 kts 110°
2026-05-04 12:48 45.21616 23.82465 35059 ft 469 kts 112°
2026-05-04 12:49 45.19087 23.90909 35064 ft 468 kts 111°
2026-05-04 12:49 45.16542 23.99379 35046 ft 466 kts 111°
2026-05-04 12:50 45.14069 24.07581 35043 ft 465 kts 111°
2026-05-04 12:50 45.11527 24.15991 35043 ft 464 kts 113°
2026-05-04 12:51 45.08976 24.24398 35038 ft 465 kts 113°
2026-05-04 12:51 45.06417 24.32801 35035 ft 466 kts 113°
2026-05-04 12:52 45.03842 24.41228 35028 ft 468 kts 112°
2026-05-04 12:52 45.01253 24.49679 35024 ft 469 kts 114°
2026-05-04 12:53 44.98676 24.58060 35026 ft 471 kts 114°
2026-05-04 12:53 44.96057 24.66548 35026 ft 472 kts 114°
2026-05-04 12:54 44.93424 24.75054 35022 ft 473 kts 114°
2026-05-04 12:54 44.90783 24.83556 35021 ft 474 kts 114°
2026-05-04 12:55 44.88132 24.92065 35025 ft 474 kts 114°
2026-05-04 12:55 44.85546 25.00335 35022 ft 474 kts 114°
2026-05-04 12:56 44.82882 25.08832 35018 ft 474 kts 114°
2026-05-04 12:56 44.80213 25.17311 35031 ft 473 kts 113°
2026-05-04 12:57 44.77541 25.25774 35028 ft 472 kts 114°
2026-05-04 12:57 44.74870 25.34208 35029 ft 471 kts 114°
2026-05-04 12:58 44.72198 25.42618 35039 ft 470 kts 114°
2026-05-04 12:58 44.69527 25.50997 35039 ft 469 kts 114°
2026-05-04 12:59 44.66876 25.59288 35028 ft 467 kts 114°
2026-05-04 12:59 44.64196 25.67642 35041 ft 465 kts 114°
2026-05-04 13:00 44.61549 25.75869 35056 ft 464 kts 114°
2026-05-04 13:00 44.58888 25.84115 35046 ft 463 kts 114°
2026-05-04 13:01 44.56229 25.92323 35049 ft 462 kts 114°
2026-05-04 13:01 44.53646 26.00282 35052 ft 460 kts 114°
2026-05-04 13:02 44.51260 26.08592 35044 ft 459 kts 105°
2026-05-04 13:02 44.50182 26.17342 35047 ft 459 kts 93°
2026-05-04 13:03 44.50046 26.26281 35049 ft 459 kts 91°
2026-05-04 13:03 44.49969 26.35244 35047 ft 460 kts 91°
2026-05-04 13:04 44.49861 26.44221 35047 ft 462 kts 92°
2026-05-04 13:04 44.49722 26.53219 35044 ft 463 kts 92°
2026-05-04 13:05 44.49568 26.62239 35040 ft 463 kts 92°
2026-05-04 13:05 44.49405 26.71255 35041 ft 463 kts 92°
2026-05-04 13:06 44.49237 26.80272 35037 ft 463 kts 92°
2026-05-04 13:06 44.49063 26.89285 35038 ft 463 kts 92°
2026-05-04 13:07 44.48881 26.98286 35039 ft 462 kts 92°
2026-05-04 13:07 44.48700 27.06975 35032 ft 462 kts 92°
2026-05-04 13:08 44.48505 27.15964 35033 ft 462 kts 92°
2026-05-04 13:08 44.48303 27.24949 35035 ft 461 kts 92°
2026-05-04 13:09 44.48094 27.33926 35040 ft 461 kts 92°
2026-05-04 13:09 44.47878 27.42895 35034 ft 460 kts 92°
2026-05-04 13:10 44.47656 27.51833 35035 ft 459 kts 92°
2026-05-04 13:10 44.47427 27.60768 35036 ft 459 kts 92°
2026-05-04 13:11 44.47192 27.69678 35046 ft 458 kts 92°
2026-05-04 13:11 44.46951 27.78538 35035 ft 457 kts 92°
2026-05-04 13:12 44.46703 27.87423 35032 ft 457 kts 92°
2026-05-04 13:12 44.46448 27.96300 35026 ft 456 kts 92°
2026-05-04 13:13 44.46194 28.04914 35025 ft 456 kts 92°
2026-05-04 13:13 44.45925 28.13796 35033 ft 456 kts 92°
2026-05-04 13:14 44.45649 28.22675 35037 ft 457 kts 92°
2026-05-04 13:14 44.45366 28.31585 35026 ft 457 kts 92°
2026-05-04 13:15 44.45078 28.40415 35020 ft 457 kts 92°
2026-05-04 13:15 44.44782 28.49288 35016 ft 456 kts 92°
2026-05-04 13:16 44.44478 28.58169 35027 ft 456 kts 91°
2026-05-04 13:16 44.44167 28.67068 35027 ft 457 kts 91°
2026-05-04 13:17 44.43852 28.75905 35023 ft 458 kts 91°
2026-05-04 13:17 44.43528 28.84804 35026 ft 458 kts 92°
2026-05-04 13:18 44.43195 28.93718 35042 ft 458 kts 92°
2026-05-04 13:18 44.42866 29.02384 35030 ft 458 kts 92°
2026-05-04 13:19 44.42521 29.11267 35019 ft 457 kts 92°
2026-05-04 13:19 44.42170 29.20140 35009 ft 456 kts 92°
2026-05-04 13:20 44.41813 29.28985 35010 ft 455 kts 92°
2026-05-04 13:20 44.41450 29.37808 35021 ft 454 kts 91°
2026-05-04 13:21 44.41081 29.46604 34996 ft 452 kts 92°
2026-05-04 13:21 44.40707 29.55371 34998 ft 451 kts 92°
2026-05-04 13:22 44.40327 29.64116 35002 ft 450 kts 92°
2026-05-04 13:22 44.39943 29.72789 34993 ft 449 kts 92°
2026-05-04 13:23 44.39552 29.81506 34991 ft 449 kts 91°
2026-05-04 13:23 44.39153 29.90223 34986 ft 449 kts 91°
2026-05-04 13:24 44.38747 29.98935 34990 ft 449 kts 92°
2026-05-04 13:24 44.38348 30.07395 34982 ft 449 kts 92°
2026-05-04 13:25 44.37717 30.20475 34986 ft 450 kts 92°
2026-05-04 13:25 44.37288 30.29194 34969 ft 449 kts 92°
2026-05-04 13:26 44.36853 30.37900 34967 ft 449 kts 92°
2026-05-04 13:26 44.36412 30.46591 34964 ft 448 kts 92°
2026-05-04 13:27 44.35966 30.55266 34965 ft 448 kts 92°
2026-05-04 13:27 44.35513 30.63936 34956 ft 447 kts 92°
2026-05-04 13:28 44.35054 30.72596 34958 ft 446 kts 92°
2026-05-04 13:28 44.34590 30.81234 34949 ft 446 kts 92°
2026-05-04 13:29 44.34122 30.89807 34942 ft 445 kts 92°
2026-05-04 13:29 44.33645 30.98437 34942 ft 445 kts 92°
2026-05-04 13:30 44.33178 31.06783 34937 ft 445 kts 92°
2026-05-04 13:30 44.32771 31.13955 34941 ft 445 kts 92°
2026-05-04 13:31 44.32277 31.22565 34938 ft 445 kts 92°
2026-05-04 13:31 44.31776 31.31183 34937 ft 445 kts 92°
2026-05-04 13:32 44.31270 31.39805 34951 ft 445 kts 93°
2026-05-04 13:32 44.30622 31.48345 34931 ft 445 kts 96°
2026-05-04 13:33 44.29709 31.56878 34923 ft 444 kts 96°
2026-05-04 13:33 44.28774 31.65376 34925 ft 442 kts 96°
2026-05-04 13:34 44.27849 31.73849 34924 ft 441 kts 96°
2026-05-04 13:34 44.26929 31.82308 34931 ft 440 kts 96°
2026-05-04 13:35 44.25547 31.94964 34914 ft 439 kts 96°
2026-05-04 13:36 44.24648 32.03120 34906 ft 439 kts 96°
2026-05-04 13:36 44.23720 32.11482 34918 ft 438 kts 96°
2026-05-04 13:37 44.22780 32.19892 34912 ft 440 kts 96°
2026-05-04 13:37 44.21832 32.28320 34892 ft 439 kts 96°
2026-05-04 13:38 44.20878 32.36725 34898 ft 437 kts 96°
2026-05-04 13:38 44.19924 32.45084 34902 ft 436 kts 96°
2026-05-04 13:39 44.18968 32.53415 34898 ft 435 kts 96°
2026-05-04 13:39 44.18010 32.61698 34893 ft 435 kts 96°
2026-05-04 13:40 44.17040 32.70031 34892 ft 434 kts 96°
2026-05-04 13:40 44.16075 32.78276 34886 ft 434 kts 96°
2026-05-04 13:41 44.15095 32.86584 34886 ft 434 kts 96°
2026-05-04 13:41 44.14109 32.94896 34897 ft 435 kts 96°
2026-05-04 13:42 44.12646 33.07124 34886 ft 435 kts 96°
2026-05-04 13:42 44.11650 33.15389 34879 ft 436 kts 96°
2026-05-04 13:43 44.10639 33.23719 34877 ft 436 kts 96°
2026-05-04 13:43 44.09622 33.32047 34898 ft 436 kts 97°
2026-05-04 13:44 44.08603 33.40341 34880 ft 436 kts 97°
2026-05-04 13:44 44.07573 33.48670 34869 ft 436 kts 97°
2026-05-04 13:45 44.06543 33.56948 34873 ft 436 kts 97°
2026-05-04 13:45 44.05502 33.65264 34872 ft 436 kts 97°
2026-05-04 13:46 44.04455 33.73580 34868 ft 436 kts 97°
2026-05-04 13:46 44.03404 33.81880 34870 ft 436 kts 97°
2026-05-04 13:47 44.02353 33.90126 34866 ft 435 kts 97°
2026-05-04 13:47 44.01289 33.98422 34871 ft 435 kts 97°
2026-05-04 13:48 44.00252 34.06463 34866 ft 435 kts 97°
2026-05-04 13:48 43.99185 34.14683 34860 ft 435 kts 98°
2026-05-04 13:49 43.98104 34.22963 34864 ft 435 kts 98°
2026-05-04 13:49 43.97019 34.31229 34860 ft 435 kts 98°
2026-05-04 13:50 43.95925 34.39513 34866 ft 435 kts 98°
2026-05-04 13:50 43.94833 34.47737 34876 ft 436 kts 98°
2026-05-04 13:51 43.93725 34.56028 34866 ft 437 kts 98°
2026-05-04 13:51 43.92611 34.64322 34862 ft 438 kts 98°
2026-05-04 13:52 43.90928 34.76754 34859 ft 439 kts 98°
2026-05-04 13:53 43.89796 34.85062 34856 ft 439 kts 99°
2026-05-04 13:53 43.88657 34.93371 34858 ft 439 kts 99°
2026-05-04 13:54 43.86977 35.05544 34858 ft 439 kts 99°
2026-05-04 13:55 43.85241 35.18014 34858 ft 438 kts 99°
2026-05-04 13:55 43.83499 35.30423 34858 ft 439 kts 99°
2026-05-04 13:56 43.82325 35.38731 34853 ft 439 kts 99°
2026-05-04 13:57 43.80551 35.51193 34852 ft 439 kts 99°
2026-05-04 13:58 43.78172 35.67755 34856 ft 440 kts 99°
2026-05-04 13:58 43.76366 35.80210 34856 ft 439 kts 100°
2026-05-04 13:59 43.75155 35.88499 34843 ft 439 kts 100°
2026-05-04 14:00 43.73367 36.00664 34860 ft 439 kts 100°
2026-05-04 14:00 43.71527 36.13085 34853 ft 439 kts 101°
2026-05-04 14:01 43.70304 36.21286 34857 ft 439 kts 101°
2026-05-04 14:02 43.68446 36.33670 34869 ft 439 kts 101°
2026-05-04 14:02 43.67196 36.41941 34854 ft 439 kts 101°
2026-05-04 14:03 43.65943 36.50194 34852 ft 439 kts 101°
2026-05-04 14:03 43.64690 36.58406 34852 ft 439 kts 101°
2026-05-04 14:04 43.62788 36.70788 34851 ft 439 kts 101°
2026-05-04 14:04 43.61522 36.78977 34849 ft 439 kts 101°
2026-05-04 14:05 43.59598 36.91345 34833 ft 439 kts 102°
2026-05-04 14:06 43.58309 36.99576 34844 ft 438 kts 102°
2026-05-04 14:06 43.57063 37.07501 34847 ft 439 kts 102°
2026-05-04 14:07 43.55763 37.15723 34845 ft 439 kts 102°
2026-05-04 14:07 43.54455 37.23953 34847 ft 439 kts 102°
2026-05-04 14:08 43.53142 37.32179 34846 ft 440 kts 102°
2026-05-04 14:08 43.51821 37.40412 34848 ft 440 kts 102°
2026-05-04 14:09 43.49825 37.52776 34843 ft 441 kts 103°
2026-05-04 14:10 43.47811 37.65160 34845 ft 442 kts 103°
2026-05-04 14:10 43.46468 37.73367 34844 ft 442 kts 103°
2026-05-04 14:11 43.45112 37.81620 34849 ft 442 kts 103°
2026-05-04 14:11 43.43064 37.94003 34830 ft 442 kts 103°
2026-05-04 14:12 43.41734 38.01996 34838 ft 441 kts 103°
2026-05-04 14:13 43.39671 38.14326 34841 ft 441 kts 103°
2026-05-04 14:13 43.38297 38.22484 34844 ft 440 kts 104°
2026-05-04 14:14 43.36909 38.30693 34841 ft 440 kts 104°
2026-05-04 14:14 43.34822 38.42961 34840 ft 439 kts 104°
2026-05-04 14:15 43.32032 38.59232 34830 ft 438 kts 104°
2026-05-04 14:16 43.29921 38.71441 34830 ft 438 kts 104°
2026-05-04 14:17 43.27806 38.83591 34830 ft 438 kts 104°
2026-05-04 14:18 43.25910 38.94421 34805 ft 438 kts 104°
2026-05-04 14:19 43.23087 39.10415 34827 ft 438 kts 105°
2026-05-04 14:19 43.21652 39.18489 34829 ft 438 kts 105°
2026-05-04 14:20 43.20200 39.26630 34823 ft 439 kts 105°
2026-05-04 14:20 43.18750 39.34718 34832 ft 439 kts 105°
2026-05-04 14:21 43.16551 39.46921 34828 ft 439 kts 105°
2026-05-04 14:21 43.15076 39.55060 34826 ft 440 kts 105°
2026-05-04 14:22 43.13605 39.63144 34821 ft 440 kts 105°
2026-05-04 14:22 43.12113 39.71303 34826 ft 440 kts 105°
2026-05-04 14:23 43.09872 39.83495 34823 ft 440 kts 105°
2026-05-04 14:24 43.08375 39.91595 34819 ft 440 kts 105°
2026-05-04 14:24 43.06869 39.99711 34812 ft 441 kts 106°
2026-05-04 14:25 43.05399 40.07600 34817 ft 442 kts 106°
2026-05-04 14:25 43.03115 40.19788 34819 ft 444 kts 107°
2026-05-04 14:26 43.01572 40.27981 34815 ft 445 kts 107°
2026-05-04 14:26 43.00017 40.36199 34805 ft 446 kts 107°
2026-05-04 14:27 42.98460 40.44393 34818 ft 447 kts 107°
2026-05-04 14:27 42.96898 40.52583 34817 ft 448 kts 107°
2026-05-04 14:28 42.95318 40.60829 34819 ft 448 kts 107°
2026-05-04 14:28 42.93745 40.69008 34811 ft 448 kts 108°
2026-05-04 14:29 42.90561 40.85451 34822 ft 448 kts 108°
2026-05-04 14:30 42.88962 40.93658 34810 ft 448 kts 108°
2026-05-04 14:31 42.86607 41.05694 34825 ft 447 kts 109°
2026-05-04 14:32 42.82155 41.21344 34839 ft 442 kts 119°
2026-05-04 14:32 42.79468 41.28838 34842 ft 442 kts 119°
2026-05-04 14:33 42.76775 41.36388 34831 ft 443 kts 119°
2026-05-04 14:33 42.74088 41.43946 34841 ft 443 kts 119°
2026-05-04 14:34 42.71421 41.51440 34852 ft 443 kts 119°
2026-05-04 14:34 42.68731 41.58978 34852 ft 443 kts 119°
2026-05-04 14:35 42.66036 41.66510 34841 ft 443 kts 119°
2026-05-04 14:35 42.63331 41.74046 34856 ft 444 kts 119°
2026-05-04 14:36 42.60610 41.81608 34864 ft 446 kts 119°
2026-05-04 14:36 42.57875 41.89186 34855 ft 448 kts 119°
2026-05-04 14:37 42.55128 41.96781 34868 ft 449 kts 119°
2026-05-04 14:37 42.52456 42.04145 34855 ft 451 kts 119°
2026-05-04 14:38 42.49703 42.11715 34853 ft 450 kts 119°
2026-05-04 14:38 42.46932 42.19318 34834 ft 450 kts 120°
2026-05-04 14:39 42.44156 42.26909 34860 ft 450 kts 120°
2026-05-04 14:39 42.41372 42.34500 34873 ft 450 kts 120°
2026-05-04 14:40 42.37184 42.45882 34854 ft 451 kts 120°
2026-05-04 14:40 42.34377 42.53488 34864 ft 452 kts 120°
2026-05-04 14:41 42.31563 42.61090 34870 ft 453 kts 120°
2026-05-04 14:42 42.25919 42.76278 34851 ft 455 kts 120°
2026-05-04 14:42 42.23070 42.83914 34860 ft 456 kts 121°
2026-05-04 14:43 42.20212 42.91555 34869 ft 457 kts 121°
2026-05-04 14:43 42.17343 42.99204 34867 ft 457 kts 121°
2026-05-04 14:44 42.14558 43.06610 34854 ft 458 kts 121°
2026-05-04 14:44 42.11670 43.14265 34856 ft 459 kts 121°
2026-05-04 14:45 42.08770 43.21936 34859 ft 461 kts 121°
2026-05-04 14:45 42.05850 43.29635 34824 ft 462 kts 121°
2026-05-04 14:46 42.02914 43.37360 34833 ft 464 kts 122°
2026-05-04 14:46 41.99990 43.45031 34822 ft 465 kts 122°
2026-05-04 14:47 41.97032 43.52766 34813 ft 466 kts 122°
2026-05-04 14:47 41.94064 43.60521 34799 ft 467 kts 122°
2026-05-04 14:48 41.91090 43.68262 34788 ft 466 kts 122°
2026-05-04 14:48 41.88112 43.75990 34798 ft 466 kts 122°
2026-05-04 14:49 41.85126 43.83721 34790 ft 467 kts 122°
2026-05-04 14:49 41.82131 43.91452 34801 ft 467 kts 123°
2026-05-04 14:50 41.79128 43.99184 34814 ft 467 kts 123°
2026-05-04 14:50 41.76228 44.06633 34825 ft 466 kts 123°
2026-05-04 14:51 41.73227 44.14324 34829 ft 466 kts 124°
2026-05-04 14:51 41.70218 44.22010 34830 ft 466 kts 124°
2026-05-04 14:52 41.67210 44.29677 34861 ft 464 kts 124°
2026-05-04 14:52 41.64196 44.37331 34831 ft 465 kts 124°
2026-05-04 14:53 41.61205 44.44913 34857 ft 464 kts 124°
2026-05-04 14:53 41.58184 44.52550 34859 ft 465 kts 124°
2026-05-04 14:54 41.55152 44.60198 34857 ft 466 kts 124°
2026-05-04 14:54 41.52116 44.67836 34868 ft 466 kts 124°
2026-05-04 14:55 41.49062 44.75495 34863 ft 467 kts 124°
2026-05-04 14:55 41.46005 44.83146 34859 ft 468 kts 124°
2026-05-04 14:56 41.42936 44.90807 34841 ft 469 kts 124°
2026-05-04 14:56 41.39859 44.98472 34852 ft 469 kts 125°
2026-05-04 14:57 41.36887 45.05857 34860 ft 470 kts 124°
2026-05-04 14:57 41.34344 45.13968 34858 ft 479 kts 115°
2026-05-04 14:58 41.32244 45.22397 34839 ft 480 kts 115°
2026-05-04 14:58 41.30487 45.29400 34855 ft 481 kts 115°
2026-05-04 14:59 41.27976 45.39190 34825 ft 481 kts 115°
2026-05-04 15:00 41.24705 45.51819 34826 ft 482 kts 115°
2026-05-04 15:00 41.22521 45.60228 34843 ft 482 kts 115°
2026-05-04 15:01 41.19214 45.72838 34849 ft 482 kts 115°
2026-05-04 15:01 41.16987 45.81221 34849 ft 482 kts 116°
2026-05-04 15:02 41.14754 45.89605 34857 ft 481 kts 115°
2026-05-04 15:02 41.12520 45.97978 34853 ft 482 kts 115°
2026-05-04 15:03 41.10726 46.04681 34853 ft 482 kts 115°
2026-05-04 15:03 41.08112 46.14423 34829 ft 482 kts 115°
2026-05-04 15:04 41.06221 46.21444 34852 ft 482 kts 115°
2026-05-04 15:04 41.03959 46.29819 34868 ft 483 kts 115°
2026-05-04 15:05 41.01723 46.38179 34860 ft 485 kts 115°
2026-05-04 15:05 40.99485 46.46586 34847 ft 485 kts 115°
2026-05-04 15:06 40.97233 46.55010 34867 ft 485 kts 115°
2026-05-04 15:07 40.93842 46.67616 34877 ft 485 kts 115°
2026-05-04 15:07 40.91574 46.76018 34846 ft 485 kts 115°
2026-05-04 15:08 40.89297 46.84414 34866 ft 485 kts 115°
2026-05-04 15:08 40.87010 46.92748 34873 ft 485 kts 115°
2026-05-04 15:09 40.84778 47.00851 34868 ft 485 kts 115°
2026-05-04 15:09 40.82467 47.09233 34857 ft 485 kts 116°
2026-05-04 15:10 40.78992 47.21775 34862 ft 486 kts 116°
2026-05-04 15:11 40.75488 47.34368 34833 ft 487 kts 116°
2026-05-04 15:11 40.73141 47.42761 34854 ft 488 kts 116°
2026-05-04 15:12 40.70789 47.51101 34858 ft 489 kts 116°
2026-05-04 15:12 40.68404 47.59530 34861 ft 490 kts 116°
2026-05-04 15:13 40.66019 47.67943 34858 ft 491 kts 116°
2026-05-04 15:13 40.63621 47.76379 34856 ft 491 kts 116°
2026-05-04 15:14 40.61218 47.84803 34859 ft 491 kts 116°
2026-05-04 15:14 40.58826 47.93164 34857 ft 491 kts 116°
2026-05-04 15:15 40.56628 48.01425 34853 ft 493 kts 113°
2026-05-04 15:15 40.54622 48.10001 34857 ft 493 kts 113°
2026-05-04 15:16 40.51464 48.22858 34849 ft 492 kts 113°
2026-05-04 15:17 40.48289 48.35686 34859 ft 492 kts 114°
2026-05-04 15:17 40.45096 48.48544 34854 ft 494 kts 114°
2026-05-04 15:18 40.42955 48.57127 34829 ft 494 kts 114°
2026-05-04 15:19 40.39745 48.69938 34850 ft 496 kts 114°
2026-05-04 15:19 40.36491 48.82853 34847 ft 497 kts 114°
2026-05-04 15:20 40.34314 48.91458 34834 ft 497 kts 114°
2026-05-04 15:20 40.32141 49.00025 34854 ft 497 kts 114°
2026-05-04 15:21 40.30009 49.08355 34857 ft 498 kts 114°
2026-05-04 15:22 40.26623 49.21243 34836 ft 499 kts 115°
2026-05-04 15:22 40.23297 49.34149 34866 ft 499 kts 114°
2026-05-04 15:23 40.21085 49.42759 34866 ft 499 kts 115°
2026-05-04 15:23 40.19004 49.51448 34836 ft 504 kts 109°
2026-05-04 15:24 40.17153 49.69750 34860 ft 512 kts 101°
2026-05-04 15:25 40.16344 49.79009 34863 ft 512 kts 101°
2026-05-04 15:26 40.15055 49.92913 34842 ft 513 kts 102°
2026-05-04 15:26 40.13764 50.06506 34855 ft 514 kts 102°
2026-05-04 15:27 40.12435 50.20367 34855 ft 515 kts 102°
2026-05-04 15:28 40.11082 50.34310 34855 ft 516 kts 102°
2026-05-04 15:29 40.09708 50.48287 34864 ft 517 kts 102°
2026-05-04 15:30 40.06438 50.80867 34863 ft 518 kts 102°
2026-05-04 15:31 40.05003 50.94877 34871 ft 518 kts 102°
2026-05-04 15:32 40.02609 51.17883 34857 ft 519 kts 102°
2026-05-04 15:34 40.00140 51.41158 34871 ft 519 kts 102°
2026-05-04 15:34 39.98343 51.55013 34857 ft 514 kts 109°
2026-05-04 15:35 39.95754 51.68509 34863 ft 513 kts 109°
2026-05-04 15:36 39.93165 51.82061 34863 ft 514 kts 109°
2026-05-04 15:36 39.91454 51.91108 34851 ft 514 kts 109°
2026-05-04 15:37 39.89750 52.00087 34867 ft 514 kts 109°
2026-05-04 15:37 39.88065 52.08915 34861 ft 514 kts 109°
2026-05-04 15:38 39.86341 52.17901 34858 ft 514 kts 109°
2026-05-04 15:38 39.84596 52.26948 34844 ft 515 kts 109°
2026-05-04 15:39 39.82845 52.35993 34855 ft 515 kts 109°
2026-05-04 15:40 39.80204 52.49556 34855 ft 516 kts 109°
2026-05-04 15:40 39.78429 52.58622 34835 ft 517 kts 109°
2026-05-04 15:41 39.76647 52.67688 34852 ft 518 kts 109°
2026-05-04 15:41 39.74866 52.76708 34851 ft 518 kts 109°
2026-05-04 15:42 39.73065 52.85799 34846 ft 519 kts 108°
2026-05-04 15:42 39.71290 52.94893 34838 ft 519 kts 108°
2026-05-04 15:43 39.69591 53.03634 34845 ft 519 kts 108°
2026-05-04 15:43 39.67814 53.12719 34841 ft 519 kts 108°
2026-05-04 15:44 39.66025 53.21804 34838 ft 519 kts 108°
2026-05-04 15:44 39.64232 53.30863 34831 ft 518 kts 108°
2026-05-04 15:45 39.62429 53.39936 34836 ft 518 kts 108°
2026-05-04 15:45 39.60622 53.48984 34827 ft 518 kts 108°
2026-05-04 15:46 39.58819 53.57977 34833 ft 518 kts 108°
2026-05-04 15:46 39.57000 53.67013 34815 ft 519 kts 108°
2026-05-04 15:47 39.55172 53.76052 34815 ft 519 kts 108°
2026-05-04 15:47 39.53335 53.85096 34811 ft 519 kts 108°
2026-05-04 15:48 39.51492 53.94134 34787 ft 519 kts 108°
2026-05-04 15:48 39.48775 54.07358 34814 ft 519 kts 108°
2026-05-04 15:49 39.46889 54.16380 34813 ft 519 kts 108°
2026-05-04 15:49 39.45005 54.25346 34811 ft 519 kts 108°
2026-05-04 15:50 39.43107 54.34359 34807 ft 520 kts 108°
2026-05-04 15:50 39.41200 54.43383 34814 ft 520 kts 108°
2026-05-04 15:51 39.39286 54.52408 34812 ft 520 kts 108°
2026-05-04 15:51 39.37686 54.59919 34818 ft 521 kts 108°
2026-05-04 15:52 39.35755 54.68952 34813 ft 521 kts 108°
2026-05-04 15:52 39.33813 54.77995 34810 ft 521 kts 108°
2026-05-04 15:53 39.31869 54.87016 34811 ft 521 kts 108°
2026-05-04 15:53 39.29919 54.96022 34792 ft 521 kts 108°
2026-05-04 15:54 39.28041 55.04660 34816 ft 520 kts 108°
2026-05-04 15:54 39.26078 55.13659 34810 ft 521 kts 108°
2026-05-04 15:55 39.24103 55.22672 34809 ft 522 kts 108°
2026-05-04 15:55 39.22117 55.31698 34805 ft 523 kts 108°
2026-05-04 15:56 39.20123 55.40725 34821 ft 524 kts 108°
2026-05-04 15:56 39.18121 55.49758 34825 ft 525 kts 108°
2026-05-04 15:57 39.16107 55.58805 34817 ft 526 kts 108°
2026-05-04 15:57 39.14082 55.67856 34814 ft 525 kts 108°
2026-05-04 15:58 39.12053 55.76897 34827 ft 524 kts 108°
2026-05-04 15:58 39.10025 55.85900 34823 ft 524 kts 108°
2026-05-04 15:59 39.07987 55.94914 34821 ft 523 kts 108°
2026-05-04 15:59 39.06017 56.03588 34852 ft 529 kts 108°
2026-05-04 16:00 39.04971 56.08178 35024 ft 532 kts 108°
2026-05-04 16:00 39.03930 56.12744 35310 ft 532 kts 108°
2026-05-04 16:00 39.02889 56.17302 35702 ft 530 kts 108°
2026-05-04 16:00 39.01850 56.21840 36070 ft 529 kts 108°
2026-05-04 16:01 39.00812 56.26369 36385 ft 528 kts 108°
2026-05-04 16:01 38.99780 56.30849 36672 ft 528 kts 109°
2026-05-04 16:01 38.97429 56.39833 36833 ft 533 kts 112°
2026-05-04 16:02 38.94890 56.48767 36810 ft 528 kts 112°
2026-05-04 16:02 38.92398 56.57618 37075 ft 531 kts 112°
2026-05-04 16:03 38.91160 56.62076 37394 ft 530 kts 111°
2026-05-04 16:03 38.89923 56.66552 37682 ft 529 kts 111°
2026-05-04 16:03 38.88697 56.70996 37985 ft 528 kts 111°
2026-05-04 16:03 38.87471 56.75433 38233 ft 528 kts 111°
2026-05-04 16:04 38.86239 56.79879 38468 ft 528 kts 111°
2026-05-04 16:04 38.83768 56.88763 38768 ft 530 kts 111°
2026-05-04 16:04 38.82524 56.93221 38803 ft 531 kts 111°
2026-05-04 16:05 38.80116 57.01826 38827 ft 528 kts 111°
2026-05-04 16:06 38.76399 57.15059 38832 ft 524 kts 111°
2026-05-04 16:07 38.71467 57.32511 38815 ft 521 kts 111°
2026-05-04 16:08 38.66494 57.49995 38826 ft 524 kts 112°
2026-05-04 16:09 38.59970 57.71867 38820 ft 528 kts 116°
2026-05-04 16:10 38.53868 57.89022 38824 ft 531 kts 116°
2026-05-04 16:11 38.47904 58.05926 38819 ft 532 kts 116°
2026-05-04 16:12 38.39163 58.31854 38813 ft 530 kts 105°
2026-05-04 16:13 38.35630 58.50053 38820 ft 528 kts 104°
2026-05-04 16:14 38.32046 58.68086 38817 ft 526 kts 105°
2026-05-04 16:16 38.27465 58.90682 38832 ft 527 kts 105°
2026-05-04 16:17 38.22909 59.12956 38837 ft 529 kts 105°
2026-05-04 16:18 38.19158 59.31119 38842 ft 531 kts 105°
2026-05-04 16:19 38.14430 59.53802 38843 ft 531 kts 105°
2026-05-04 16:20 38.09672 59.76384 38854 ft 529 kts 105°
2026-05-04 16:22 38.04892 59.98843 38865 ft 528 kts 105°
2026-05-04 16:23 37.99175 60.25390 38866 ft 527 kts 106°
2026-05-04 16:25 37.93280 60.52277 38880 ft 527 kts 106°
2026-05-04 16:26 37.86357 60.83489 38895 ft 527 kts 106°
2026-05-04 16:28 37.81406 61.05549 38910 ft 527 kts 106°
2026-05-04 16:29 37.74332 61.36704 38913 ft 528 kts 106°
2026-05-04 16:31 37.69214 61.58991 38919 ft 528 kts 106°
2026-05-04 16:32 37.62825 61.85651 38920 ft 529 kts 114°
2026-05-04 16:33 37.55352 62.01099 38914 ft 525 kts 129°
2026-05-04 16:34 37.48755 62.12100 38914 ft 524 kts 129°
2026-05-04 16:35 37.35678 62.34188 38918 ft 524 kts 129°
2026-05-04 16:36 37.29137 62.45207 38909 ft 525 kts 129°
2026-05-04 16:37 37.22581 62.56209 38931 ft 525 kts 129°
2026-05-04 16:38 37.14556 62.69627 38911 ft 526 kts 129°
2026-05-04 16:39 37.03560 62.87924 38937 ft 526 kts 129°
2026-05-04 16:40 36.94875 63.02308 38941 ft 527 kts 129°
2026-05-04 16:41 36.83831 63.20509 38943 ft 528 kts 129°
2026-05-04 16:43 36.72706 63.38747 38966 ft 528 kts 129°
2026-05-04 16:43 36.66013 63.49669 38967 ft 529 kts 129°
2026-05-04 16:45 36.52585 63.71481 38965 ft 530 kts 129°
2026-05-04 16:46 36.41340 63.89639 38987 ft 531 kts 129°
2026-05-04 16:47 36.32442 64.03939 38988 ft 531 kts 129°
2026-05-04 16:48 36.23406 64.18401 38988 ft 532 kts 129°
2026-05-04 16:49 36.14358 64.32910 38993 ft 533 kts 128°
2026-05-04 16:50 36.05612 64.47721 38997 ft 533 kts 127°
2026-05-04 16:51 35.99050 64.58763 39013 ft 533 kts 127°
2026-05-04 16:52 35.90228 64.73486 39020 ft 533 kts 128°
2026-05-04 16:53 35.83637 64.84449 39026 ft 532 kts 128°
2026-05-04 16:54 35.74797 64.99104 39085 ft 533 kts 127°
2026-05-04 16:55 35.61603 65.20861 39088 ft 533 kts 127°
2026-05-04 16:56 35.50497 65.39067 39094 ft 535 kts 127°
2026-05-04 16:57 35.43795 65.50010 39121 ft 535 kts 128°
2026-05-04 16:58 35.34828 65.64596 39136 ft 535 kts 128°
2026-05-04 17:00 35.21349 65.86409 39141 ft 535 kts 128°
2026-05-04 17:01 35.10230 66.04302 39130 ft 535 kts 128°
2026-05-04 17:02 35.01241 66.18704 39126 ft 534 kts 128°
2026-05-04 17:03 34.94474 66.29489 39149 ft 535 kts 128°
2026-05-04 17:03 34.87641 66.40246 39117 ft 534 kts 128°
2026-05-04 17:04 34.78576 66.54474 39117 ft 533 kts 128°
2026-05-04 17:05 34.69433 66.68781 39106 ft 537 kts 128°
2026-05-04 17:06 34.62555 66.79513 39107 ft 534 kts 128°
2026-05-04 17:07 34.56471 66.88972 39088 ft 534 kts 128°
2026-05-04 17:07 34.51148 66.97220 39102 ft 533 kts 129°
2026-05-04 17:08 34.44388 67.07623 39083 ft 533 kts 129°
2026-05-04 17:09 34.39794 67.14679 39084 ft 534 kts 129°
2026-05-04 17:09 34.35189 67.21744 39070 ft 535 kts 129°
2026-05-04 17:10 34.23645 67.39394 39069 ft 537 kts 129°
2026-05-04 17:11 34.19004 67.46464 39075 ft 536 kts 129°
2026-05-04 17:12 34.12066 67.57006 39072 ft 533 kts 129°
2026-05-04 17:13 34.00567 67.74423 39083 ft 531 kts 129°
2026-05-04 17:14 33.91311 67.88252 39073 ft 531 kts 130°
2026-05-04 17:15 33.84306 67.98603 39065 ft 533 kts 130°
2026-05-04 17:16 33.75051 68.12269 39048 ft 535 kts 130°
2026-05-04 17:17 33.65635 68.26120 39023 ft 538 kts 130°
2026-05-04 17:18 33.56136 68.40044 38974 ft 538 kts 130°
2026-05-04 17:19 33.46488 68.53736 38939 ft 536 kts 131°
2026-05-04 17:20 33.36857 68.67219 38935 ft 533 kts 131°
2026-05-04 17:20 33.29642 68.77325 38922 ft 532 kts 131°
2026-05-04 17:21 33.20465 68.91198 38947 ft 532 kts 128°
2026-05-04 17:22 33.15981 68.98222 38922 ft 532 kts 128°
2026-05-04 17:23 33.07109 69.11949 38893 ft 525 kts 128°
2026-05-04 17:23 33.02664 69.18795 38388 ft 520 kts 128°
2026-05-04 17:24 33.00446 69.22208 38083 ft 518 kts 128°
2026-05-04 17:24 32.93830 69.32371 36746 ft 521 kts 128°
2026-05-04 17:25 32.92356 69.34632 36430 ft 522 kts 128°
2026-05-04 17:25 32.87911 69.41444 35674 ft 519 kts 128°
2026-05-04 17:26 32.83456 69.48244 35033 ft 520 kts 128°
2026-05-04 17:27 32.72318 69.65145 35008 ft 521 kts 128°
2026-05-04 17:28 32.63346 69.78720 35001 ft 525 kts 128°
2026-05-04 17:29 32.49898 69.98974 34970 ft 518 kts 128°
2026-05-04 17:31 32.37093 70.12653 34923 ft 504 kts 173°
2026-05-04 17:31 32.26952 70.11275 34904 ft 486 kts 213°
2026-05-04 17:32 32.21250 70.07178 34914 ft 480 kts 218°
2026-05-04 17:33 32.09921 69.98790 34926 ft 482 kts 217°
2026-05-04 17:34 31.98539 69.90647 34918 ft 475 kts 217°
2026-05-04 17:35 31.84473 69.80610 34911 ft 475 kts 217°
2026-05-04 17:36 31.78821 69.76584 34926 ft 475 kts 217°
2026-05-04 17:36 31.73160 69.72560 34921 ft 476 kts 217°
2026-05-04 17:37 31.67488 69.68533 34934 ft 476 kts 217°
2026-05-04 17:37 31.61814 69.64511 34929 ft 476 kts 217°
2026-05-04 17:38 31.56144 69.60498 34926 ft 476 kts 217°
2026-05-04 17:38 31.50480 69.56495 34932 ft 475 kts 217°
2026-05-04 17:39 31.41996 69.50508 34921 ft 474 kts 217°
2026-05-04 17:39 31.35981 69.47230 34920 ft 490 kts 197°
2026-05-04 17:40 31.32549 69.46811 34933 ft 501 kts 183°
2026-05-04 17:40 31.29068 69.47347 34925 ft 508 kts 172°
2026-05-04 17:40 31.22190 69.49184 34925 ft 511 kts 171°
2026-05-04 17:41 31.15251 69.50966 34915 ft 510 kts 172°
2026-05-04 17:41 31.08303 69.52766 34943 ft 511 kts 172°
2026-05-04 17:42 31.01369 69.54523 34935 ft 508 kts 172°
2026-05-04 17:42 30.94486 69.56231 34901 ft 505 kts 172°
2026-05-04 17:43 30.87625 69.57924 34915 ft 503 kts 172°
2026-05-04 17:43 30.80824 69.59600 34914 ft 503 kts 172°
2026-05-04 17:44 30.73971 69.61289 34916 ft 504 kts 172°
2026-05-04 17:44 30.67084 69.62985 34894 ft 506 kts 172°
2026-05-04 17:45 30.60183 69.64682 34904 ft 507 kts 172°
2026-05-04 17:45 30.53276 69.66379 34905 ft 508 kts 172°
2026-05-04 17:46 30.46360 69.68075 34895 ft 508 kts 172°
2026-05-04 17:46 30.39448 69.69769 34891 ft 507 kts 173°
2026-05-04 17:47 30.32565 69.71452 34891 ft 508 kts 173°
2026-05-04 17:47 30.25641 69.73143 34892 ft 508 kts 173°
2026-05-04 17:48 30.18738 69.75003 34884 ft 510 kts 170°
2026-05-04 17:48 30.11871 69.77064 34870 ft 510 kts 170°
2026-05-04 17:49 30.05038 69.79110 34878 ft 511 kts 170°
2026-05-04 17:49 29.98156 69.81129 34865 ft 511 kts 171°
2026-05-04 17:50 29.91256 69.83132 34836 ft 512 kts 171°
2026-05-04 17:50 29.84341 69.85132 34845 ft 512 kts 171°
2026-05-04 17:51 29.77418 69.87136 34848 ft 513 kts 171°
2026-05-04 17:51 29.70497 69.89139 34826 ft 513 kts 171°
2026-05-04 17:52 29.63575 69.91139 34822 ft 512 kts 171°
2026-05-04 17:52 29.56721 69.93117 34795 ft 511 kts 171°
2026-05-04 17:53 29.49829 69.95101 34795 ft 510 kts 171°
2026-05-04 17:53 29.42942 69.97082 34797 ft 510 kts 171°
2026-05-04 17:54 29.36035 69.99065 34772 ft 511 kts 171°
2026-05-04 17:54 29.29118 70.01048 34774 ft 513 kts 171°
2026-05-04 17:55 29.22184 70.03034 34772 ft 514 kts 171°
2026-05-04 17:55 29.15239 70.05021 34759 ft 514 kts 171°
2026-05-04 17:56 29.08344 70.06992 34747 ft 514 kts 171°
2026-05-04 17:56 29.01413 70.08969 34747 ft 514 kts 171°
2026-05-04 17:57 28.94493 70.10940 34739 ft 513 kts 171°
2026-05-04 17:57 28.87564 70.12911 34702 ft 513 kts 171°
2026-05-04 17:58 28.80647 70.14876 34728 ft 513 kts 171°
2026-05-04 17:58 28.73713 70.16843 34733 ft 513 kts 171°
2026-05-04 17:59 28.66770 70.18809 34725 ft 514 kts 171°
2026-05-04 18:00 28.56397 70.21744 34717 ft 513 kts 171°
2026-05-04 18:00 28.49468 70.23701 34724 ft 513 kts 171°
2026-05-04 18:01 28.42542 70.25659 34723 ft 511 kts 170°
2026-05-04 18:01 28.39215 70.27157 34711 ft 521 kts 153°
2026-05-04 18:01 28.36313 70.29665 34726 ft 528 kts 136°
2026-05-04 18:02 28.32435 70.36696 34739 ft 528 kts 114°
2026-05-04 18:02 28.30902 70.40499 34711 ft 531 kts 114°
2026-05-04 18:02 28.27796 70.48128 34723 ft 534 kts 115°
2026-05-04 18:03 28.24603 70.55706 34726 ft 537 kts 116°
2026-05-04 18:03 28.21331 70.63332 34705 ft 536 kts 116°
2026-05-04 18:04 28.18064 70.70923 34701 ft 533 kts 116°
2026-05-04 18:05 28.13203 70.82219 34701 ft 529 kts 116°
2026-05-04 18:05 28.09976 70.89710 34730 ft 529 kts 116°
2026-05-04 18:06 28.05241 71.00672 34704 ft 528 kts 116°
2026-05-04 18:06 28.02010 71.08134 34707 ft 528 kts 116°
2026-05-04 18:07 27.98785 71.15569 34693 ft 527 kts 116°
2026-05-04 18:07 27.95549 71.23015 34710 ft 528 kts 116°
2026-05-04 18:08 27.92305 71.30468 34698 ft 528 kts 116°
2026-05-04 18:08 27.89055 71.37921 34709 ft 528 kts 116°
2026-05-04 18:09 27.82339 71.52664 34709 ft 529 kts 118°
2026-05-04 18:10 27.78858 71.59983 34721 ft 529 kts 118°
2026-05-04 18:10 27.75406 71.67304 34708 ft 527 kts 118°
2026-05-04 18:11 27.71971 71.74610 34665 ft 526 kts 118°
2026-05-04 18:11 27.68542 71.81883 34709 ft 524 kts 118°
2026-05-04 18:12 27.66577 71.85314 34707 ft 519 kts 133°
2026-05-04 18:12 27.63912 71.88001 34716 ft 512 kts 150°
2026-05-04 18:12 27.60783 71.89865 34728 ft 508 kts 163°
2026-05-04 18:12 27.57398 71.90891 34718 ft 499 kts 179°
2026-05-04 18:13 27.50549 71.91561 34728 ft 497 kts 181°
2026-05-04 18:14 27.41365 71.92507 34717 ft 497 kts 180°
2026-05-04 18:14 27.34477 71.93290 34721 ft 495 kts 179°
2026-05-04 18:15 27.20796 71.94879 34728 ft 494 kts 179°
2026-05-04 18:16 27.13956 71.95667 34728 ft 494 kts 180°
2026-05-04 18:16 27.07164 71.96447 34730 ft 494 kts 180°
2026-05-04 18:17 26.96920 71.97622 34729 ft 495 kts 179°
2026-05-04 18:18 26.86636 71.98801 34717 ft 495 kts 180°
2026-05-04 18:18 26.79773 71.99586 34733 ft 496 kts 180°
2026-05-04 18:19 26.69636 72.00743 34738 ft 498 kts 180°
2026-05-04 18:19 26.62743 72.01530 34741 ft 498 kts 180°
2026-05-04 18:20 26.55849 72.02317 34733 ft 497 kts 179°
2026-05-04 18:20 26.48957 72.03101 34742 ft 497 kts 179°
2026-05-04 18:21 26.42122 72.03878 34746 ft 497 kts 179°
2026-05-04 18:21 26.35236 72.04659 34743 ft 497 kts 179°
2026-05-04 18:22 26.28348 72.05440 34727 ft 497 kts 179°
2026-05-04 18:22 26.21466 72.06220 34736 ft 497 kts 179°
2026-05-04 18:23 26.14580 72.06998 34732 ft 498 kts 180°
2026-05-04 18:23 26.07717 72.07774 34725 ft 498 kts 179°
2026-05-04 18:24 26.00815 72.08553 34717 ft 498 kts 179°
2026-05-04 18:24 25.93922 72.09330 34718 ft 498 kts 179°
2026-05-04 18:25 25.87019 72.10107 34721 ft 499 kts 179°
2026-05-04 18:25 25.80101 72.10885 34721 ft 500 kts 179°
2026-05-04 18:26 25.73186 72.11662 34691 ft 500 kts 179°
2026-05-04 18:26 25.66313 72.12435 34712 ft 499 kts 179°
2026-05-04 18:27 25.59401 72.13225 34713 ft 499 kts 179°
2026-05-04 18:27 25.52487 72.14020 34717 ft 499 kts 179°
2026-05-04 18:28 25.45570 72.14812 34715 ft 499 kts 179°
2026-05-04 18:28 25.38658 72.15601 34704 ft 500 kts 179°
2026-05-04 18:29 25.31742 72.16390 34712 ft 500 kts 179°
2026-05-04 18:29 25.24806 72.17180 34717 ft 501 kts 179°
2026-05-04 18:30 25.14401 72.18364 34695 ft 501 kts 179°
2026-05-04 18:31 25.07505 72.19148 34724 ft 502 kts 179°
2026-05-04 18:31 25.00535 72.19948 34726 ft 503 kts 178°
2026-05-04 18:32 24.93615 72.21331 34728 ft 507 kts 173°
2026-05-04 18:32 24.86693 72.22924 34727 ft 507 kts 173°
2026-05-04 18:33 24.79823 72.24448 34725 ft 507 kts 174°
2026-05-04 18:33 24.72900 72.25977 34752 ft 507 kts 173°
2026-05-04 18:34 24.66003 72.27528 34746 ft 505 kts 173°
2026-05-04 18:34 24.59122 72.29076 34743 ft 504 kts 173°
2026-05-04 18:35 24.52252 72.30615 34742 ft 503 kts 173°
2026-05-04 18:35 24.45377 72.32151 34752 ft 504 kts 173°
2026-05-04 18:36 24.38542 72.33676 34752 ft 505 kts 173°
2026-05-04 18:36 24.31637 72.35216 34743 ft 507 kts 173°
2026-05-04 18:37 24.24725 72.36757 34749 ft 507 kts 173°
2026-05-04 18:37 24.17821 72.38295 34744 ft 506 kts 173°
2026-05-04 18:38 24.10923 72.39829 34758 ft 505 kts 173°
2026-05-04 18:38 24.04031 72.41360 34758 ft 505 kts 173°
2026-05-04 18:39 23.97150 72.42890 34743 ft 505 kts 173°
2026-05-04 18:39 23.90274 72.44425 34761 ft 505 kts 173°
2026-05-04 18:40 23.83386 72.45961 34762 ft 505 kts 173°
2026-05-04 18:40 23.76489 72.47497 34759 ft 506 kts 173°
2026-05-04 18:41 23.69637 72.49021 34753 ft 506 kts 173°
2026-05-04 18:41 23.62740 72.50553 34748 ft 505 kts 173°
2026-05-04 18:42 23.55853 72.52082 34748 ft 505 kts 173°
2026-05-04 18:42 23.48976 72.53606 34756 ft 504 kts 173°
2026-05-04 18:43 23.42100 72.55129 34761 ft 504 kts 173°
2026-05-04 18:43 23.35222 72.56650 34741 ft 503 kts 173°
2026-05-04 18:44 23.28361 72.58167 34748 ft 502 kts 173°
2026-05-04 18:44 23.21523 72.59677 34751 ft 501 kts 173°
2026-05-04 18:45 23.14680 72.61185 34755 ft 501 kts 173°
2026-05-04 18:45 23.07861 72.62108 34723 ft 492 kts 186°
2026-05-04 18:46 23.01170 72.61118 34737 ft 480 kts 201°
2026-05-04 18:46 22.94829 72.58956 34737 ft 478 kts 203°
2026-05-04 18:47 22.88493 72.56749 34748 ft 479 kts 202°
2026-05-04 18:47 22.82125 72.54580 34745 ft 480 kts 202°
2026-05-04 18:48 22.75741 72.52439 34726 ft 480 kts 202°
2026-05-04 18:48 22.69361 72.50308 34738 ft 479 kts 202°
2026-05-04 18:49 22.62992 72.48181 34741 ft 479 kts 202°
2026-05-04 18:49 22.56629 72.46056 34742 ft 478 kts 202°
2026-05-04 18:50 22.50304 72.43945 34742 ft 478 kts 202°
2026-05-04 18:50 22.43949 72.41826 34723 ft 478 kts 202°
2026-05-04 18:51 22.37581 72.39705 34751 ft 478 kts 202°
2026-05-04 18:51 22.31217 72.37588 34736 ft 478 kts 202°
2026-05-04 18:52 22.24838 72.35467 34740 ft 478 kts 202°
2026-05-04 18:52 22.18517 72.33368 34742 ft 478 kts 202°
2026-05-04 18:53 22.12145 72.31254 34730 ft 478 kts 202°
2026-05-04 18:53 22.05780 72.29144 34732 ft 477 kts 201°
2026-05-04 18:54 21.99449 72.27048 34748 ft 477 kts 201°
2026-05-04 18:54 21.93108 72.24950 34741 ft 476 kts 201°
2026-05-04 18:55 21.86782 72.22858 34745 ft 476 kts 201°
2026-05-04 18:55 21.77203 72.19965 34735 ft 481 kts 192°
2026-05-04 18:56 21.70504 72.20063 34759 ft 491 kts 173°
2026-05-04 18:56 21.63826 72.21774 34753 ft 494 kts 169°
2026-05-04 18:57 21.57160 72.23625 34764 ft 494 kts 169°
2026-05-04 18:57 21.50492 72.25409 34761 ft 494 kts 170°
2026-05-04 18:58 21.43809 72.27148 34773 ft 493 kts 170°
2026-05-04 18:58 21.37147 72.28871 34774 ft 492 kts 170°
2026-05-04 18:59 21.30498 72.30591 34781 ft 491 kts 170°
2026-05-04 18:59 21.23856 72.32311 34793 ft 491 kts 170°
2026-05-04 19:00 21.17215 72.34030 34794 ft 491 kts 170°
2026-05-04 19:00 21.10570 72.35747 34801 ft 492 kts 170°
2026-05-04 19:01 21.03955 72.37456 34800 ft 492 kts 170°
2026-05-04 19:01 20.97314 72.39171 34796 ft 492 kts 170°
2026-05-04 19:02 20.90654 72.40888 34795 ft 492 kts 170°
2026-05-04 19:02 20.85119 72.42314 34789 ft 491 kts 170°
2026-05-04 19:03 20.78475 72.44027 34799 ft 490 kts 170°
2026-05-04 19:03 20.71821 72.45390 34799 ft 480 kts 184°
2026-05-04 19:04 20.68541 72.44979 34803 ft 471 kts 200°
2026-05-04 19:04 20.65510 72.43752 34816 ft 464 kts 206°
2026-05-04 19:04 20.59530 72.41170 34811 ft 469 kts 206°
2026-05-04 19:05 20.53436 72.38642 34664 ft 461 kts 205°
2026-05-04 19:05 20.50454 72.37426 34311 ft 455 kts 205°
2026-05-04 19:05 20.47511 72.36230 33894 ft 451 kts 205°
2026-05-04 19:06 20.44593 72.35044 33401 ft 447 kts 205°
2026-05-04 19:06 20.41729 72.33880 32920 ft 443 kts 205°
2026-05-04 19:06 20.38862 72.32714 32456 ft 439 kts 205°
2026-05-04 19:06 20.36016 72.31556 31995 ft 436 kts 205°
2026-05-04 19:07 20.33193 72.30407 31541 ft 432 kts 205°
2026-05-04 19:07 20.30392 72.29267 31106 ft 430 kts 205°
2026-05-04 19:07 20.27607 72.28135 30640 ft 427 kts 205°
2026-05-04 19:07 20.24833 72.27007 30182 ft 425 kts 205°
2026-05-04 19:08 20.22075 72.25886 29698 ft 424 kts 205°
2026-05-04 19:08 20.19324 72.24767 29162 ft 422 kts 204°
2026-05-04 19:08 20.16586 72.23655 28662 ft 419 kts 204°
2026-05-04 19:08 20.13867 72.22552 28178 ft 417 kts 204°
2026-05-04 19:09 20.11158 72.21453 27703 ft 415 kts 204°
2026-05-04 19:09 20.08462 72.20360 27242 ft 413 kts 204°
2026-05-04 19:09 20.05781 72.19273 26790 ft 411 kts 204°
2026-05-04 19:09 20.03141 72.18204 26341 ft 410 kts 204°
2026-05-04 19:10 20.00484 72.17127 25892 ft 408 kts 204°
2026-05-04 19:10 19.97850 72.16060 25441 ft 407 kts 204°
2026-05-04 19:10 19.95195 72.14985 24974 ft 407 kts 203°
2026-05-04 19:10 19.92555 72.13917 24510 ft 407 kts 203°
2026-05-04 19:11 19.89907 72.12845 24070 ft 406 kts 203°
2026-05-04 19:11 19.87269 72.11778 23627 ft 406 kts 203°
2026-05-04 19:11 19.84630 72.10711 23150 ft 405 kts 203°
2026-05-04 19:11 19.81999 72.09650 22676 ft 402 kts 202°
2026-05-04 19:12 19.79311 72.09047 22502 ft 394 kts 182°
2026-05-04 19:12 19.74146 72.10609 21872 ft 390 kts 147°
2026-05-04 19:12 19.72064 72.12370 21504 ft 385 kts 138°
2026-05-04 19:13 19.70050 72.14297 21130 ft 384 kts 137°
2026-05-04 19:13 19.68113 72.16192 20768 ft 384 kts 137°
2026-05-04 19:13 19.66149 72.18113 20381 ft 383 kts 137°
2026-05-04 19:13 19.64183 72.20021 20010 ft 383 kts 137°
2026-05-04 19:14 19.62212 72.21918 19684 ft 381 kts 137°
2026-05-04 19:14 19.60244 72.23800 19352 ft 379 kts 137°
2026-05-04 19:14 19.58287 72.25664 19009 ft 376 kts 137°
2026-05-04 19:14 19.56357 72.27497 18823 ft 368 kts 137°
2026-05-04 19:15 19.54454 72.29302 18278 ft 371 kts 137°
2026-05-04 19:15 19.52513 72.31142 17764 ft 373 kts 137°
2026-05-04 19:15 19.50599 72.32956 17507 ft 365 kts 137°
2026-05-04 19:15 19.48725 72.34731 17239 ft 358 kts 137°
2026-05-04 19:16 19.46845 72.36511 16547 ft 366 kts 138°
2026-05-04 19:16 19.44953 72.38302 16216 ft 361 kts 138°
2026-05-04 19:16 19.43124 72.40033 16034 ft 352 kts 138°
2026-05-04 19:16 19.41300 72.41759 15497 ft 354 kts 138°
2026-05-04 19:17 19.39456 72.43503 15029 ft 355 kts 138°
2026-05-04 19:17 19.37624 72.45235 14786 ft 348 kts 139°
2026-05-04 19:17 19.35826 72.46935 14376 ft 347 kts 139°
2026-05-04 19:17 19.34011 72.48650 13891 ft 349 kts 139°
2026-05-04 19:18 19.32212 72.50349 13664 ft 342 kts 139°
2026-05-04 19:18 19.30454 72.52010 13305 ft 338 kts 139°
2026-05-04 19:18 19.28707 72.53660 12631 ft 329 kts 139°
2026-05-04 19:18 19.27053 72.55222 12338 ft 312 kts 140°
2026-05-04 19:19 19.25467 72.56718 12147 ft 305 kts 140°
2026-05-04 19:19 19.23913 72.58183 12006 ft 295 kts 140°
2026-05-04 19:19 19.22463 72.59664 11846 ft 283 kts 128°
2026-05-04 19:19 19.21665 72.61510 11803 ft 272 kts 102°
2026-05-04 19:20 19.21504 72.63524 11794 ft 283 kts 91°
2026-05-04 19:20 19.21488 72.65659 11759 ft 295 kts 90°
2026-05-04 19:20 19.21490 72.67831 11707 ft 293 kts 90°
2026-05-04 19:20 19.21494 72.69970 11659 ft 289 kts 90°
2026-05-04 19:21 19.21494 72.72080 11617 ft 286 kts 90°
2026-05-04 19:21 19.21491 72.74194 11580 ft 287 kts 90°
2026-05-04 19:21 19.21484 72.76281 11544 ft 288 kts 90°
2026-05-04 19:21 19.21475 72.78404 11502 ft 288 kts 91°
2026-05-04 19:22 19.21464 72.80529 11466 ft 288 kts 91°
2026-05-04 19:22 19.21452 72.82648 11425 ft 288 kts 91°
2026-05-04 19:22 19.21439 72.84764 11379 ft 287 kts 91°
2026-05-04 19:22 19.21425 72.86898 11027 ft 294 kts 91°
2026-05-04 19:23 19.21411 72.89079 10562 ft 299 kts 91°
2026-05-04 19:23 19.21396 72.91289 10112 ft 302 kts 92°
2026-05-04 19:23 19.21380 72.93527 9668 ft 305 kts 92°
2026-05-04 19:23 19.21362 72.95781 9166 ft 308 kts 91°
2026-05-04 19:24 19.21344 72.98056 8674 ft 308 kts 91°
2026-05-04 19:24 19.21330 73.00118 8180 ft 291 kts 91°
2026-05-04 19:24 19.21315 73.02182 7679 ft 277 kts 91°
2026-05-04 19:24 19.21300 73.04206 7221 ft 277 kts 90°
2026-05-04 19:25 19.21284 73.06267 6772 ft 283 kts 90°
2026-05-04 19:25 19.21268 73.08377 6323 ft 289 kts 90°
2026-05-04 19:25 19.21250 73.10528 5847 ft 295 kts 90°
2026-05-04 19:25 19.21233 73.12709 5396 ft 299 kts 90°
2026-05-04 19:26 19.21218 73.14932 4932 ft 303 kts 90°
2026-05-04 19:26 19.21233 73.17178 4452 ft 307 kts 89°
2026-05-04 19:26 19.21260 73.19440 3979 ft 304 kts 90°
2026-05-04 19:26 19.21211 73.21567 3547 ft 281 kts 101°
2026-05-04 19:27 19.20502 73.23376 3164 ft 256 kts 132°
2026-05-04 19:27 19.19144 73.24462 3042 ft 241 kts 162°
2026-05-04 19:27 19.17523 73.24636 3028 ft 234 kts 193°
2026-05-04 19:27 19.16075 73.23892 3026 ft 233 kts 221°
2026-05-04 19:28 19.14938 73.22654 3017 ft 236 kts 229°
2026-05-04 19:28 19.13865 73.21333 3033 ft 236 kts 230°
2026-05-04 19:28 19.12810 73.20000 3019 ft 237 kts 230°
2026-05-04 19:28 19.11739 73.18649 3017 ft 242 kts 230°
2026-05-04 19:29 19.10670 73.17308 3033 ft 235 kts 230°
2026-05-04 19:29 19.09706 73.15929 2911 ft 232 kts 245°
2026-05-04 19:29 19.09647 73.14231 2586 ft 230 kts 279°
2026-05-04 19:29 19.09661 73.12554 2794 ft 232 kts 256°
2026-05-04 19:30 19.09352 73.10851 2902 ft 239 kts 260°
2026-05-04 19:30 19.09191 73.09094 2949 ft 239 kts 265°
2026-05-04 19:30 19.09147 73.07348 2985 ft 236 kts 267°
2026-05-04 19:30 19.09128 73.05617 2989 ft 235 kts 267°
2026-05-04 19:31 19.09108 73.03892 2934 ft 236 kts 267°
2026-05-04 19:31 19.09083 73.02171 2583 ft 233 kts 267°
2026-05-04 19:31 19.09063 73.00515 2298 ft 218 kts 266°
2026-05-04 19:31 19.09042 72.98968 2048 ft 202 kts 266°
2026-05-04 19:32 19.09023 72.97548 1805 ft 184 kts 266°
2026-05-04 19:32 19.09004 72.96243 1566 ft 167 kts 265°
2026-05-04 19:32 19.08987 72.95091 1352 ft 149 kts 266°
2026-05-04 19:32 19.08973 72.94050 1202 ft 139 kts 266°
2026-05-04 19:33 19.08959 72.93029 1013 ft 138 kts 265°
2026-05-04 19:33 19.08943 72.92024 815 ft 136 kts 265°
2026-05-04 19:33 19.08930 72.91019 702 ft 135 kts 263°
2026-05-04 19:33 19.08928 72.90009 571 ft 141 kts 262°
2026-05-04 19:34 19.08896 72.88974 365 ft 140 kts 262°
2026-05-04 19:34 19.08890 72.87948 131 ft 138 kts 264°
2026-05-04 19:34 19.08870 72.86938 47 ft 131 kts 265°
2026-05-04 19:34 19.08862 72.86093 32 ft 96 kts 268°
2026-05-04 19:35 19.08856 72.85580 31 ft 44 kts 270°
2026-05-04 19:35 19.08916 72.85309 32 ft 20 kts 297°
2026-05-04 19:35 19.08978 72.85231 30 ft 9 kts 359°
2026-05-04 19:35 19.09020 72.85291 30 ft 13 kts 84°
2026-05-04 19:36 19.09023 72.85391 31 ft 14 kts 88°
2026-05-04 19:36 19.09026 72.85540 31 ft 29 kts 89°
2026-05-04 19:36 19.09029 72.85738 32 ft 26 kts 87°
2026-05-04 19:36 19.09031 72.85930 33 ft 27 kts 89°
2026-05-04 19:37 19.09034 72.86128 34 ft 27 kts 89°
2026-05-04 19:37 19.09051 72.86321 36 ft 22 kts 64°
2026-05-04 19:37 19.09149 72.86442 36 ft 22 kts 49°
2026-05-04 19:37 19.09248 72.86563 38 ft 22 kts 49°
2026-05-04 19:38 19.09348 72.86682 38 ft 22 kts 49°
2026-05-04 19:38 19.09423 72.86799 38 ft 11 kts 89°
2026-05-04 19:38 19.09387 72.86859 37 ft 10 kts 139°
2026-05-04 19:38 19.09335 72.86909 37 ft 14 kts 136°
2026-05-04 19:39 19.09308 72.86940 37 ft 2 kts 117°
2026-05-04 19:39 19.09305 72.86970 37 ft 7 kts 76°
2026-05-04 19:39 19.09329 72.87015 38 ft 3 kts 60°
2026-05-04 19:39 19.09332 72.87020 38 ft 0 kts 60°